Location: Unspecified
(41.4057°N, 2.1753°E)
Time: 09:02:35
(UTC+02:00)

ISS - Visible Passes

Search period start: 26 September 2016 00:00
Search period end: 06 October 2016 00:00
Orbit: 401 x 409 km, 51.6° (Epoch: 26 September)

Date Brightness Start Highest point End Pass type
(mag) Time Alt. Az. Time Alt. Az. Time Alt. Az.
27 Sep -1.2 21:21:17 10° SSW 21:22:21 18° SSW 21:22:21 18° SSW visible
28 Sep -1.8 20:29:59 10° S 20:32:22 19° SE 20:33:13 17° ESE visible
28 Sep -0.3 22:05:28 10° WSW 22:05:56 13° WSW 22:05:56 13° WSW visible
29 Sep -3.5 21:13:14 10° SW 21:16:30 89° NW 21:16:33 86° NE visible
30 Sep -3.0 20:21:18 10° SW 20:24:26 46° SE 20:27:00 14° ENE visible
30 Sep -0.6 21:58:12 10° W 21:59:41 20° WNW 21:59:41 20° WNW visible
01 Oct -2.2 21:05:41 10° W 21:08:47 40° NNW 21:09:57 28° NNE visible
02 Oct -3.1 20:13:20 10° WSW 20:16:35 71° NNW 20:19:50 10° NE visible
02 Oct -0.6 21:51:10 10° WNW 21:52:46 17° NNW 21:52:46 17° NNW visible
03 Oct -1.3 20:58:26 10° WNW 21:01:09 23° NNW 21:02:47 16° NNE visible
04 Oct -1.9 20:05:48 10° W 20:08:49 34° NNW 20:11:51 10° NE visible
04 Oct -0.4 21:44:07 10° NW 21:45:22 14° NNW 21:45:22 14° NNW visible
05 Oct -0.9 20:51:21 10° NW 20:53:34 17° NNW 20:55:14 12° NNE visible
